| time (UTC) | temp F | wind direction | speed knots | gust knots | rain 1hr in | rain 24hr in | rain mn in | humidity % | barometer mb |
| 20260508073038 | 39 | 108 | 0.9 | 2.6 | 0.00 | 0.00 | 0.00 | 96 | 1016.3 |
| 20260508072533 | 39 | 108 | 0.9 | 0.9 | 0.00 | 0.00 | 0.00 | 96 | 1016.1 |
| 20260508072031 | 38 | 108 | 1.7 | 1.7 | 0.00 | 0.00 | 0.00 | 95 | 1016.3 |
| 20260508071528 | 39 | 108 | 0.9 | 0.9 | 0.00 | 0.00 | 0.00 | 95 | 1016.3 |
| 20260508071026 | 39 | 108 | 0.0 | 0.0 | 0.00 | 0.00 | 0.00 | 95 | 1016.4 |
| 20260508070524 | 39 | 108 | 0.9 | 0.9 | 0.00 | 0.00 | 0.00 | 95 | 1016.3 |
| 20260508070022 | 39 | 108 | 1.7 | 1.7 | 0.00 | 0.00 | 0.00 | 95 | 1016.3 |
| 20260508065519 | 39 | 108 | 0.9 | 1.7 | 0.00 | 0.00 | 0.00 | 95 | 1016.4 |
| 20260508065017 | 39 | 108 | 0.9 | 1.7 | 0.00 | 0.00 | 0.00 | 95 | 1016.3 |
| 20260508064514 | 39 | 108 | 0.0 | 0.9 | 0.00 | 0.00 | 0.00 | 96 | 1016.4 |
| 20260508064012 | 39 | 108 | 1.7 | 1.7 | 0.00 | 0.00 | 0.00 | 96 | 1016.3 |
| 20260508063509 | 37 | 37 | 0.0 | 0.0 | 0.00 | 0.00 | 0.00 | 95 | 1016.3 |
| 20260508063007 | 38 | 37 | 0.0 | 0.0 | 0.00 | 0.00 | 0.00 | 95 | 1016.4 |
| 20260508062504 | 39 | 37 | 0.0 | 0.0 | 0.00 | 0.00 | 0.00 | 95 | 1016.3 |
| 20260508062000 | 39 | 37 | 0.0 | 0.0 | 0.00 | 0.00 | 0.00 | 95 | 1016.3 |
| 20260508061459 | 39 | 37 | 0.0 | 0.0 | 0.00 | 0.00 | 0.00 | 95 | 1016.4 |
| 20260508060955 | 39 | 37 | 0.0 | 0.0 | 0.00 | 0.00 | 0.00 | 95 | 1016.0 |
| 20260508060452 | 39 | 37 | 0.0 | 0.0 | 0.00 | 0.00 | 0.00 | 95 | 1016.0 |
| 20260508055948 | 39 | 37 | 0.0 | 0.0 | 0.00 | 0.00 | 0.00 | 95 | 1016.0 |
| 20260508055445 | 39 | 37 | 0.0 | 0.9 | 0.00 | 0.00 | 0.00 | 95 | 1016.3 |
| 20260508054942 | 39 | 38 | 1.7 | 1.7 | 0.00 | 0.00 | 0.00 | 94 | 1016.1 |
| 20260508054439 | 39 | 37 | 0.9 | 0.9 | 0.00 | 0.00 | 0.00 | 94 | 1016.3 |
| 20260508053935 | 38 | 21 | 0.9 | 1.7 | 0.00 | 0.00 | 0.00 | 93 | 1016.5 |
| 20260508053433 | 38 | 296 | 0.0 | 0.0 | 0.00 | 0.00 | 0.00 | 93 | 1016.1 |
| 20260508052931 | 38 | 296 | 0.0 | 0.0 | 0.00 | 0.00 | 0.00 | 92 | 1016.3 |
| 20260508052428 | 39 | 296 | 0.0 | 0.0 | 0.00 | 0.00 | 0.00 | 92 | 1016.5 |
| 20260508051924 | 39 | 296 | 0.0 | 0.0 | 0.00 | 0.00 | 0.00 | 92 | 1016.6 |
| 20260508051420 | 39 | 296 | 0.0 | 0.0 | 0.00 | 0.00 | 0.00 | 91 | 1016.5 |
| 20260508050916 | 39 | 296 | 0.0 | 0.0 | 0.00 | 0.00 | 0.00 | 90 | 1016.4 |
| 20260508050413 | 39 | 296 | 0.0 | 0.0 | 0.00 | 0.00 | 0.00 | 90 | 1016.5 |
| 20260508045909 | 40 | 296 | 0.0 | 0.0 | 0.00 | 0.00 | 0.00 | 89 | 1016.5 |
| 20260508045407 | 39 | 296 | 0.0 | 0.0 | 0.00 | 0.00 | 0.00 | 88 | 1016.4 |
| 20260508044904 | 40 | 296 | 0.0 | 0.0 | 0.00 | 0.00 | 0.00 | 86 | 1016.3 |
| 20260508044401 | 40 | 296 | 0.0 | 0.0 | 0.00 | 0.00 | 0.00 | 86 | 1016.4 |
| 20260508043856 | 41 | 296 | 0.0 | 0.0 | 0.00 | 0.00 | 0.00 | 85 | 1016.5 |
| 20260508043354 | 41 | 296 | 0.9 | 0.9 | 0.00 | 0.00 | 0.00 | 84 | 1016.3 |
| 20260508042850 | 41 | 296 | 0.0 | 0.9 | 0.00 | 0.00 | 0.00 | 84 | 1016.3 |
| 20260508042348 | 41 | 296 | 0.0 | 0.0 | 0.00 | 0.00 | 0.00 | 83 | 1016.3 |
| 20260508041845 | 41 | 294 | 0.0 | 0.0 | 0.00 | 0.00 | 0.00 | 83 | 1016.3 |
| 20260508041341 | 41 | 294 | 0.0 | 0.0 | 0.00 | 0.00 | 0.00 | 83 | 1016.3 |
| 20260508040838 | 42 | 294 | 0.0 | 0.0 | 0.00 | 0.00 | 0.00 | 83 | 1016.1 |
| 20260508040335 | 42 | 294 | 0.0 | 0.0 | 0.00 | 0.00 | 0.00 | 82 | 1016.1 |
| 20260508035832 | 42 | 294 | 0.0 | 0.0 | 0.00 | 0.02 | 0.02 | 83 | 1016.0 |
| 20260508035330 | 42 | 294 | 0.0 | 0.0 | 0.00 | 0.02 | 0.02 | 82 | 1015.9 |
| 20260508034826 | 42 | 294 | 0.0 | 0.0 | 0.00 | 0.02 | 0.02 | 81 | 1015.9 |
| 20260508034324 | 42 | 294 | 0.0 | 0.0 | 0.00 | 0.02 | 0.02 | 81 | 1015.8 |
| 20260508033820 | 42 | 294 | 0.0 | 0.9 | 0.00 | 0.02 | 0.02 | 81 | 1015.9 |
| 20260508033319 | 43 | 294 | 0.0 | 0.9 | 0.00 | 0.02 | 0.02 | 79 | 1015.9 |
| 20260508032816 | 43 | 294 | 0.0 | 0.0 | 0.00 | 0.02 | 0.02 | 76 | 1015.7 |
| 20260508032313 | 44 | 294 | 0.0 | 0.0 | 0.00 | 0.02 | 0.02 | 72 | 1015.6 |
| 20260508031809 | 44 | 294 | 0.0 | 0.0 | 0.00 | 0.02 | 0.02 | 71 | 1015.6 |
| 20260508031306 | 45 | 294 | 0.0 | 0.0 | 0.00 | 0.02 | 0.02 | 69 | 1015.6 |
| 20260508030802 | 45 | 294 | 0.0 | 0.0 | 0.00 | 0.02 | 0.02 | 69 | 1015.6 |
| 20260508030300 | 46 | 294 | 0.0 | 0.0 | 0.00 | 0.02 | 0.02 | 68 | 1015.6 |
| 20260508025756 | 47 | 294 | 0.0 | 0.9 | 0.00 | 0.02 | 0.02 | 67 | 1015.4 |
| 20260508025254 | 47 | 294 | 0.0 | 1.7 | 0.00 | 0.02 | 0.02 | 62 | 1015.4 |
| 20260508024749 | 47 | 303 | 0.0 | 0.0 | 0.00 | 0.02 | 0.02 | 61 | 1015.5 |
| 20260508024246 | 46 | 296 | 0.9 | 1.7 | 0.00 | 0.02 | 0.02 | 68 | 1015.4 |
| 20260508023743 | 45 | 298 | 0.0 | 0.9 | 0.00 | 0.02 | 0.02 | 72 | 1015.3 |
| 20260508023241 | 45 | 298 | 0.0 | 0.9 | 0.00 | 0.02 | 0.02 | 73 | 1015.2 |
| 20260508022736 | 46 | 298 | 0.0 | 0.0 | 0.00 | 0.02 | 0.02 | 73 | 1015.3 |
| 20260508022233 | 46 | 298 | 0.0 | 0.0 | 0.00 | 0.02 | 0.02 | 69 | 1015.2 |
| 20260508021730 | 46 | 298 | 0.0 | 0.0 | 0.00 | 0.02 | 0.02 | 65 | 1015.0 |
| 20260508021225 | 47 | 298 | 0.0 | 0.0 | 0.00 | 0.02 | 0.02 | 63 | 1014.9 |
| 20260508020723 | 47 | 298 | 0.0 | 0.9 | 0.00 | 0.02 | 0.02 | 64 | 1014.7 |
| 20260508020220 | 48 | 298 | 0.0 | 0.9 | 0.00 | 0.02 | 0.02 | 66 | 1014.9 |
| 20260508015717 | 49 | 298 | 0.9 | 1.7 | 0.00 | 0.02 | 0.02 | 61 | 1015.0 |
| 20260508015214 | 50 | 298 | 0.0 | 1.7 | 0.00 | 0.02 | 0.02 | 58 | 1014.6 |
| 20260508014711 | 51 | 301 | 0.0 | 0.9 | 0.00 | 0.02 | 0.02 | 51 | 1014.6 |
| 20260508014208 | 51 | 301 | 0.0 | 0.9 | 0.00 | 0.02 | 0.02 | 53 | 1014.7 |
| 20260508013703 | 52 | 301 | 0.0 | 0.0 | 0.00 | 0.02 | 0.02 | 48 | 1014.7 |
| 20260508013200 | 52 | 301 | 0.9 | 2.6 | 0.00 | 0.02 | 0.02 | 47 | 1014.6 |
| 20260508012658 | 53 | 301 | 0.9 | 1.7 | 0.00 | 0.02 | 0.02 | 48 | 1014.3 |
| 20260508012154 | 53 | 303 | 0.9 | 3.5 | 0.00 | 0.02 | 0.02 | 46 | 1014.5 |
| 20260508011653 | 53 | 287 | 0.0 | 0.9 | 0.00 | 0.02 | 0.02 | 50 | 1014.1 |
| 20260508011150 | 53 | 287 | 0.9 | 0.9 | 0.00 | 0.02 | 0.02 | 50 | 1014.2 |
| 20260508010647 | 53 | 290 | 0.9 | 7.0 | 0.00 | 0.02 | 0.02 | 50 | 1014.2 |
| 20260508010145 | 54 | 306 | 0.9 | 1.7 | 0.00 | 0.02 | 0.02 | 51 | 1014.2 |
| 20260508005642 | 55 | 306 | 0.9 | 1.7 | 0.00 | 0.02 | 0.02 | 46 | 1014.1 |
| 20260508005138 | 54 | 292 | 1.7 | 2.6 | 0.00 | 0.02 | 0.02 | 48 | 1014.1 |
| 20260508004634 | 55 | 292 | 1.7 | 2.6 | 0.00 | 0.02 | 0.02 | 48 | 1014.1 |
| 20260508004130 | 55 | 280 | 1.7 | 3.5 | 0.00 | 0.02 | 0.02 | 46 | 1013.9 |
| 20260508003627 | 55 | 275 | 1.7 | 1.7 | 0.00 | 0.02 | 0.02 | 47 | 1013.8 |
| 20260508003125 | 55 | 275 | 0.9 | 0.9 | 0.00 | 0.02 | 0.02 | 47 | 1013.8 |
| 20260508002621 | 56 | 275 | 1.7 | 1.7 | 0.00 | 0.02 | 0.02 | 46 | 1013.7 |
| 20260508002119 | 56 | 275 | 1.7 | 3.5 | 0.00 | 0.02 | 0.02 | 46 | 1013.7 |
| 20260508001614 | 56 | 275 | 0.9 | 3.5 | 0.00 | 0.02 | 0.02 | 45 | 1013.5 |
| 20260508001110 | 56 | 275 | 1.7 | 1.7 | 0.00 | 0.02 | 0.02 | 48 | 1013.4 |
| 20260508000606 | 56 | 275 | 0.9 | 2.6 | 0.00 | 0.02 | 0.02 | 47 | 1013.2 |
| 20260508000104 | 56 | 274 | 0.0 | 2.6 | 0.00 | 0.02 | 0.02 | 46 | 1013.1 |
| 20260507235600 | 57 | 275 | 0.0 | 0.9 | 0.00 | 0.02 | 0.02 | 48 | 1013.2 |
| 20260507235058 | 58 | 275 | 0.9 | 1.7 | 0.00 | 0.02 | 0.02 | 44 | 1013.1 |
| 20260507234554 | 59 | 286 | 0.9 | 1.7 | 0.00 | 0.02 | 0.02 | 44 | 1013.2 |
| 20260507234050 | 59 | 294 | 0.9 | 3.5 | 0.00 | 0.02 | 0.02 | 43 | 1013.1 |
| 20260507233547 | 58 | 272 | 1.7 | 3.5 | 0.00 | 0.02 | 0.02 | 43 | 1013.1 |
| 20260507233046 | 58 | 322 | 4.3 | 7.0 | 0.00 | 0.02 | 0.02 | 43 | 1013.1 |
| 20260507232542 | 58 | 292 | 2.6 | 6.1 | 0.00 | 0.02 | 0.02 | 43 | 1013.1 |
| 20260507232039 | 58 | 283 | 4.3 | 6.1 | 0.00 | 0.02 | 0.02 | 43 | 1013.0 |
| 20260507231536 | 58 | 287 | 2.6 | 6.1 | 0.00 | 0.02 | 0.02 | 44 | 1012.8 |
| 20260507231033 | 59 | 274 | 2.6 | 7.0 | 0.00 | 0.02 | 0.02 | 43 | 1012.9 |
| 20260507230530 | 59 | 244 | 2.6 | 5.2 | 0.00 | 0.02 | 0.02 | 43 | 1012.9 |
| 20260507230026 | 59 | 273 | 2.6 | 5.2 | 0.00 | 0.02 | 0.02 | 42 | 1012.9 |
| 20260507225521 | 60 | 288 | 5.2 | 6.1 | 0.00 | 0.02 | 0.02 | 43 | 1012.8 |
| 20260507225018 | 60 | 248 | 3.5 | 5.2 | 0.00 | 0.02 | 0.02 | 43 | 1012.7 |
| 20260507224513 | 60 | 268 | 2.6 | 5.2 | 0.00 | 0.02 | 0.02 | 43 | 1012.5 |
| 20260507224010 | 60 | 256 | 1.7 | 2.6 | 0.00 | 0.02 | 0.02 | 46 | 1012.6 |
| 20260507223506 | 60 | 285 | 3.5 | 6.1 | 0.00 | 0.02 | 0.02 | 43 | 1012.7 |
| 20260507223004 | 60 | 267 | 5.2 | 7.0 | 0.00 | 0.02 | 0.02 | 42 | 1012.7 |
| 20260507222501 | 61 | 321 | 5.2 | 12.2 | 0.00 | 0.02 | 0.02 | 41 | 1012.6 |
| 20260507221957 | 61 | 232 | 2.6 | 5.2 | 0.00 | 0.02 | 0.02 | 44 | 1012.5 |
| 20260507221453 | 61 | 246 | 1.7 | 3.5 | 0.00 | 0.02 | 0.02 | 45 | 1012.5 |
| 20260507220950 | 60 | 257 | 2.6 | 6.1 | 0.00 | 0.02 | 0.02 | 48 | 1012.7 |
| 20260507220448 | 60 | 233 | 2.6 | 8.7 | 0.00 | 0.02 | 0.02 | 44 | 1012.5 |
| 20260507215944 | 61 | 270 | 3.5 | 5.2 | 0.00 | 0.02 | 0.02 | 44 | 1012.4 |
| 20260507215441 | 61 | 256 | 3.5 | 7.0 | 0.00 | 0.02 | 0.02 | 45 | 1012.4 |
| 20260507214938 | 62 | 268 | 4.3 | 7.0 | 0.00 | 0.02 | 0.02 | 44 | 1012.2 |
| 20260507214430 | 62 | 241 | 5.2 | 7.0 | 0.00 | 0.02 | 0.02 | 45 | 1012.3 |
| 20260507213925 | 61 | 261 | 2.6 | 2.6 | 0.00 | 0.02 | 0.02 | 44 | 1012.2 |
| 20260507213422 | 62 | 309 | 2.6 | 3.5 | 0.00 | 0.02 | 0.02 | 45 | 1012.1 |
| 20260507212919 | 62 | 309 | 1.7 | 6.1 | 0.00 | 0.02 | 0.02 | 42 | 1012.1 |
| 20260507212415 | 61 | 298 | 1.7 | 1.7 | 0.00 | 0.02 | 0.02 | 49 | 1012.1 |
| 20260507211912 | 60 | 336 | 1.7 | 2.6 | 0.00 | 0.02 | 0.02 | 46 | 1011.9 |
| 20260507211408 | 60 | 298 | 3.5 | 5.2 | 0.00 | 0.02 | 0.02 | 45 | 1012.0 |
| 20260507210905 | 60 | 288 | 3.5 | 5.2 | 0.00 | 0.02 | 0.02 | 42 | 1011.9 |
| 20260507210402 | 60 | 320 | 4.3 | 7.0 | 0.00 | 0.02 | 0.02 | 46 | 1011.9 |
| 20260507205858 | 60 | 282 | 5.2 | 6.1 | 0.00 | 0.02 | 0.02 | 45 | 1011.8 |
| 20260507205355 | 60 | 327 | 3.5 | 6.1 | 0.00 | 0.02 | 0.02 | 46 | 1011.6 |
| 20260507204852 | 60 | 298 | 3.5 | 7.0 | 0.00 | 0.02 | 0.02 | 45 | 1011.9 |
| 20260507204349 | 60 | 288 | 2.6 | 7.0 | 0.00 | 0.02 | 0.02 | 49 | 1011.8 |
| 20260507203846 | 60 | 288 | 1.7 | 5.2 | 0.00 | 0.02 | 0.02 | 48 | 1011.8 |
| 20260507203339 | 59 | 300 | 5.2 | 7.0 | 0.00 | 0.02 | 0.02 | 44 | 1011.7 |
| 20260507202835 | 59 | 312 | 1.7 | 3.5 | 0.00 | 0.02 | 0.02 | 46 | 1011.8 |
| 20260507202331 | 60 | 276 | 3.5 | 6.1 | 0.00 | 0.02 | 0.02 | 46 | 1011.9 |
| 20260507201827 | 60 | 259 | 4.3 | 6.1 | 0.00 | 0.02 | 0.02 | 45 | 1011.9 |
| 20260507201323 | 60 | 270 | 2.6 | 11.3 | 0.00 | 0.02 | 0.02 | 46 | 1011.9 |
| 20260507200819 | 62 | 252 | 6.1 | 8.7 | 0.00 | 0.02 | 0.02 | 47 | 1012.1 |
| 20260507200315 | 61 | 272 | 2.6 | 7.0 | 0.00 | 0.02 | 0.02 | 49 | 1012.1 |
| 20260507195811 | 60 | 296 | 4.3 | 5.2 | 0.00 | 0.02 | 0.02 | 47 | 1012.2 |
| 20260507195309 | 61 | 303 | 2.6 | 2.6 | 0.00 | 0.02 | 0.02 | 47 | 1012.1 |
| 20260507194806 | 60 | 248 | 1.7 | 7.0 | 0.00 | 0.02 | 0.02 | 50 | 1012.3 |
| 20260507194302 | 60 | 291 | 4.3 | 9.6 | 0.00 | 0.02 | 0.02 | 45 | 1012.4 |
| 20260507193759 | 61 | 281 | 1.7 | 5.2 | 0.00 | 0.02 | 0.02 | 49 | 1012.4 |
| 20260507193256 | 61 | 263 | 1.7 | 6.1 | 0.00 | 0.02 | 0.02 | 47 | 1012.3 |
| 20260507192751 | 62 | 259 | 4.3 | 8.7 | 0.00 | 0.02 | 0.02 | 50 | 1012.5 |
| 20260507192249 | 59 | 253 | 3.5 | 7.8 | 0.00 | 0.02 | 0.02 | 52 | 1012.4 |
| 20260507191745 | 60 | 303 | 2.6 | 3.5 | 0.00 | 0.02 | 0.02 | 51 | 1012.3 |
| 20260507191242 | 61 | 305 | 5.2 | 12.2 | 0.00 | 0.02 | 0.02 | 48 | 1012.4 |
| 20260507190738 | 61 | 310 | 5.2 | 6.1 | 0.00 | 0.02 | 0.02 | 50 | 1012.4 |
| 20260507190237 | 61 | 333 | 4.3 | 7.0 | 0.00 | 0.02 | 0.02 | 54 | 1012.5 |
| 20260507185735 | 62 | 316 | 0.9 | 3.5 | 0.00 | 0.02 | 0.02 | 53 | 1012.8 |
| 20260507185231 | 62 | 283 | 7.8 | 9.6 | 0.00 | 0.02 | 0.02 | 46 | 1012.5 |
| 20260507184729 | 61 | 288 | 1.7 | 3.5 | 0.00 | 0.02 | 0.02 | 53 | 1012.8 |
| 20260507184227 | 60 | 285 | 2.6 | 3.5 | 0.00 | 0.02 | 0.02 | 51 | 1012.7 |
| 20260507183723 | 58 | 256 | 1.7 | 2.6 | 0.00 | 0.02 | 0.02 | 53 | 1012.6 |
| 20260507183220 | 58 | 281 | 3.5 | 3.5 | 0.00 | 0.02 | 0.02 | 54 | 1012.8 |
| 20260507182718 | 58 | 276 | 2.6 | 2.6 | 0.00 | 0.02 | 0.02 | 54 | 1012.8 |
| 20260507182213 | 58 | 277 | 2.6 | 6.1 | 0.00 | 0.02 | 0.02 | 54 | 1012.8 |
| 20260507181710 | 58 | 278 | 3.5 | 7.0 | 0.00 | 0.02 | 0.02 | 55 | 1012.8 |
| 20260507181206 | 58 | 235 | 6.1 | 8.7 | 0.00 | 0.02 | 0.02 | 53 | 1012.7 |
| 20260507180703 | 60 | 284 | 4.3 | 6.1 | 0.00 | 0.02 | 0.02 | 50 | 1012.8 |
| 20260507180200 | 60 | 266 | 6.1 | 7.0 | 0.00 | 0.02 | 0.02 | 50 | 1012.9 |
| 20260507175655 | 61 | 262 | 1.7 | 1.7 | 0.00 | 0.02 | 0.02 | 53 | 1012.9 |
| 20260507175152 | 60 | 267 | 1.7 | 6.1 | 0.00 | 0.02 | 0.02 | 54 | 1012.9 |
| 20260507174649 | 60 | 263 | 3.5 | 7.0 | 0.00 | 0.02 | 0.02 | 54 | 1013.1 |
| 20260507174147 | 60 | 264 | 1.7 | 5.2 | 0.00 | 0.02 | 0.02 | 55 | 1012.8 |
| 20260507173645 | 58 | 283 | 1.7 | 3.5 | 0.00 | 0.02 | 0.02 | 58 | 1013.4 |
| 20260507173141 | 58 | 263 | 0.0 | 2.6 | 0.00 | 0.02 | 0.02 | 58 | 1013.1 |
| 20260507172637 | 58 | 266 | 2.6 | 3.5 | 0.00 | 0.02 | 0.02 | 59 | 1013.1 |
| 20260507172135 | 57 | 320 | 1.7 | 3.5 | 0.00 | 0.02 | 0.02 | 58 | 1013.2 |
| 20260507171635 | 58 | 320 | 2.6 | 6.1 | 0.00 | 0.02 | 0.02 | 61 | 1013.4 |
| 20260507171133 | 58 | 296 | 1.7 | 3.5 | 0.00 | 0.02 | 0.02 | 55 | 1013.1 |
| 20260507170630 | 60 | 244 | 2.6 | 3.5 | 0.00 | 0.02 | 0.02 | 57 | 1013.2 |
| 20260507170127 | 60 | 252 | 1.7 | 6.1 | 0.00 | 0.02 | 0.02 | 57 | 1013.5 |
| 20260507165622 | 59 | 293 | 5.2 | 6.1 | 0.00 | 0.02 | 0.02 | 56 | 1013.5 |
| 20260507165119 | 59 | 234 | 3.5 | 6.1 | 0.00 | 0.02 | 0.02 | 57 | 1013.6 |
| 20260507164614 | 59 | 261 | 4.3 | 5.2 | 0.00 | 0.02 | 0.02 | 57 | 1013.8 |
| 20260507164111 | 58 | 218 | 3.5 | 7.8 | 0.00 | 0.02 | 0.02 | 64 | 1013.9 |
| 20260507163609 | 57 | 283 | 5.2 | 9.6 | 0.00 | 0.02 | 0.02 | 62 | 1014.0 |
| 20260507163108 | 57 | 317 | 0.9 | 1.7 | 0.00 | 0.02 | 0.02 | 58 | 1014.0 |
| 20260507162607 | 56 | 309 | 3.5 | 6.1 | 0.00 | 0.02 | 0.02 | 64 | 1014.1 |
| 20260507162104 | 59 | 271 | 0.9 | 2.6 | 0.00 | 0.02 | 0.02 | 62 | 1014.1 |
| 20260507161600 | 58 | 237 | 1.7 | 1.7 | 0.00 | 0.02 | 0.02 | 61 | 1013.9 |
| 20260507161057 | 58 | 213 | 4.3 | 6.1 | 0.00 | 0.02 | 0.02 | 59 | 1014.0 |
| 20260507160554 | 57 | 307 | 4.3 | 5.2 | 0.00 | 0.02 | 0.02 | 65 | 1014.2 |
| 20260507160050 | 58 | 293 | 3.5 | 6.1 | 0.00 | 0.02 | 0.02 | 59 | 1014.1 |
| 20260507155545 | 58 | 262 | 2.6 | 5.2 | 0.00 | 0.02 | 0.02 | 59 | 1014.4 |
| 20260507155043 | 59 | 285 | 1.7 | 2.6 | 0.00 | 0.02 | 0.02 | 63 | 1014.4 |
| 20260507154539 | 58 | 267 | 2.6 | 2.6 | 0.00 | 0.02 | 0.02 | 60 | 1014.5 |
| 20260507154037 | 57 | 267 | 2.6 | 2.6 | 0.00 | 0.02 | 0.02 | 60 | 1014.3 |
| 20260507153533 | 58 | 276 | 2.6 | 5.2 | 0.00 | 0.02 | 0.02 | 57 | 1014.4 |
| 20260507153030 | 57 | 166 | 0.0 | 5.2 | 0.00 | 0.02 | 0.02 | 65 | 1014.3 |
| 20260507152525 | 56 | 93 | 0.9 | 3.5 | 0.00 | 0.02 | 0.02 | 61 | 1014.3 |
| 20260507152022 | 56 | 93 | 0.0 | 1.7 | 0.00 | 0.02 | 0.02 | 65 | 1014.4 |
| 20260507151518 | 55 | 93 | 1.7 | 2.6 | 0.00 | 0.02 | 0.02 | 60 | 1014.5 |
| 20260507151015 | 55 | 66 | 0.0 | 0.9 | 0.00 | 0.02 | 0.02 | 65 | 1014.6 |
| 20260507150512 | 55 | 66 | 1.7 | 3.5 | 0.00 | 0.02 | 0.02 | 62 | 1014.4 |
| 20260507150009 | 55 | 26 | 3.5 | 3.5 | 0.00 | 0.02 | 0.02 | 63 | 1014.6 |
| 20260507145504 | 54 | 352 | 0.9 | 1.7 | 0.00 | 0.02 | 0.02 | 68 | 1014.6 |
| 20260507145001 | 54 | 4 | 1.7 | 2.6 | 0.00 | 0.02 | 0.02 | 69 | 1014.5 |
| 20260507144458 | 54 | 4 | 0.9 | 1.7 | 0.00 | 0.02 | 0.02 | 69 | 1014.8 |
| 20260507143955 | 54 | 4 | 0.0 | 0.0 | 0.00 | 0.02 | 0.02 | 73 | 1014.7 |
| 20260507143453 | 53 | 4 | 1.7 | 2.6 | 0.00 | 0.02 | 0.02 | 72 | 1014.7 |
| 20260507142949 | 53 | 4 | 1.7 | 1.7 | 0.00 | 0.02 | 0.02 | 73 | 1014.9 |
| 20260507142445 | 53 | 4 | 0.9 | 1.7 | 0.00 | 0.02 | 0.02 | 71 | 1015.1 |
| 20260507141943 | 53 | 313 | 2.6 | 2.6 | 0.00 | 0.02 | 0.02 | 75 | 1014.9 |
| 20260507141438 | 54 | 305 | 0.0 | 1.7 | 0.00 | 0.02 | 0.02 | 74 | 1015.0 |
| 20260507140935 | 54 | 305 | 0.9 | 0.9 | 0.00 | 0.02 | 0.02 | 81 | 1015.1 |
| 20260507140432 | 53 | 305 | 0.0 | 0.9 | 0.00 | 0.02 | 0.02 | 83 | 1015.0 |
| 20260507135930 | 53 | 302 | 0.9 | 1.7 | 0.00 | 0.02 | 0.02 | 84 | 1015.0 |
| 20260507135426 | 52 | 301 | 1.7 | 5.2 | 0.00 | 0.02 | 0.02 | 83 | 1015.2 |
| 20260507134924 | 52 | 346 | 0.0 | 0.9 | 0.00 | 0.02 | 0.02 | 84 | 1015.1 |
| 20260507134420 | 52 | 346 | 0.9 | 1.7 | 0.00 | 0.02 | 0.02 | 85 | 1015.3 |
| 20260507133916 | 52 | 346 | 0.0 | 0.9 | 0.00 | 0.02 | 0.02 | 86 | 1015.1 |
| 20260507133412 | 52 | 346 | 0.0 | 0.9 | 0.00 | 0.02 | 0.02 | 87 | 1015.3 |
| 20260507132911 | 52 | 346 | 0.9 | 0.9 | 0.00 | 0.02 | 0.02 | 88 | 1015.5 |
| 20260507132407 | 51 | 346 | 0.0 | 0.0 | 0.00 | 0.02 | 0.02 | 89 | 1015.2 |
| 20260507131905 | 51 | 346 | 0.0 | 0.0 | 0.00 | 0.02 | 0.02 | 90 | 1015.3 |
| 20260507131400 | 51 | 346 | 0.0 | 0.0 | 0.00 | 0.02 | 0.02 | 91 | 1015.4 |
| 20260507130857 | 50 | 346 | 0.9 | 0.9 | 0.00 | 0.02 | 0.02 | 92 | 1015.4 |
| 20260507130354 | 50 | 346 | 0.0 | 0.0 | 0.00 | 0.02 | 0.02 | 93 | 1015.4 |
| 20260507125853 | 50 | 346 | 0.0 | 0.9 | 0.00 | 0.02 | 0.02 | 96 | 1015.4 |
| 20260507125350 | 50 | 346 | 0.9 | 0.9 | 0.00 | 0.02 | 0.02 | 97 | 1015.6 |
| 20260507124848 | 49 | 346 | 0.0 | 0.0 | 0.00 | 0.02 | 0.02 | 98 | 1015.5 |
| 20260507124343 | 49 | 346 | 0.0 | 0.0 | 0.00 | 0.02 | 0.02 | 99 | 1015.4 |
| 20260507123843 | 49 | 346 | 0.0 | 0.0 | 0.00 | 0.02 | 0.02 | 99 | 1015.5 |
| 20260507123339 | 49 | 346 | 0.0 | 0.0 | 0.00 | 0.02 | 0.02 | 99 | 1015.3 |
| 20260507122835 | 49 | 346 | 0.0 | 0.0 | 0.00 | 0.02 | 0.02 | 99 | 1015.5 |
| 20260507122331 | 49 | 346 | 0.0 | 1.7 | 0.00 | 0.02 | 0.02 | 99 | 1015.3 |
| 20260507121827 | 49 | 346 | 0.0 | 0.0 | 0.00 | 0.02 | 0.02 | 99 | 1015.4 |
| 20260507121323 | 49 | 346 | 0.0 | 0.0 | 0.00 | 0.02 | 0.02 | 99 | 1015.3 |
| 20260507120820 | 49 | 346 | 0.0 | 0.0 | 0.00 | 0.02 | 0.02 | 99 | 1015.4 |
| 20260507120316 | 49 | 346 | 0.0 | 0.0 | 0.00 | 0.02 | 0.02 | 99 | 1015.5 |
| 20260507115812 | 49 | 346 | 0.0 | 0.0 | 0.00 | 0.02 | 0.02 | 99 | 1015.5 |
| 20260507115308 | 49 | 346 | 0.0 | 0.9 | 0.00 | 0.02 | 0.02 | 99 | 1015.6 |
| 20260507114804 | 49 | 346 | 0.0 | 0.9 | 0.00 | 0.02 | 0.02 | 99 | 1015.3 |
| 20260507114301 | 49 | 346 | 0.9 | 0.9 | 0.00 | 0.02 | 0.02 | 99 | 1015.3 |
| 20260507113759 | 49 | 346 | 0.0 | 0.9 | 0.00 | 0.02 | 0.02 | 99 | 1015.1 |
| 20260507113255 | 49 | 346 | 0.0 | 0.0 | 0.00 | 0.02 | 0.02 | 99 | 1015.2 |
| 20260507112753 | 49 | 346 | 0.0 | 0.0 | 0.00 | 0.02 | 0.02 | 99 | 1015.1 |
| 20260507112250 | 49 | 346 | 0.0 | 0.0 | 0.00 | 0.02 | 0.02 | 99 | 1014.9 |
| 20260507111748 | 49 | 346 | 0.0 | 0.0 | 0.00 | 0.02 | 0.02 | 99 | 1015.1 |
| 20260507111244 | 49 | 346 | 0.0 | 0.0 | 0.00 | 0.02 | 0.02 | 99 | 1015.0 |
| 20260507110740 | 48 | 346 | 0.0 | 0.0 | 0.00 | 0.02 | 0.02 | 99 | 1014.7 |
| 20260507110237 | 48 | 346 | 0.0 | 0.0 | 0.00 | 0.02 | 0.02 | 99 | 1014.7 |
| 20260507105734 | 48 | 346 | 0.0 | 0.0 | 0.00 | 0.02 | 0.02 | 99 | 1014.6 |
| 20260507105230 | 48 | 346 | 0.0 | 0.0 | 0.00 | 0.02 | 0.02 | 99 | 1014.5 |
| 20260507104727 | 48 | 346 | 0.0 | 0.0 | 0.00 | 0.02 | 0.02 | 99 | 1014.7 |
| 20260507104224 | 48 | 346 | 0.0 | 0.0 | 0.00 | 0.02 | 0.02 | 99 | 1014.5 |
| 20260507103720 | 48 | 346 | 0.0 | 0.0 | 0.00 | 0.02 | 0.02 | 99 | 1014.6 |
| 20260507103216 | 48 | 346 | 0.0 | 0.0 | 0.00 | 0.02 | 0.02 | 99 | 1014.4 |
| 20260507102713 | 48 | 346 | 0.0 | 0.0 | 0.00 | 0.02 | 0.02 | 99 | 1014.5 |
| 20260507102209 | 48 | 346 | 0.0 | 0.0 | 0.00 | 0.02 | 0.02 | 99 | 1014.5 |
| 20260507101705 | 48 | 346 | 0.0 | 0.0 | 0.00 | 0.02 | 0.02 | 99 | 1014.6 |
| 20260507101201 | 48 | 346 | 0.0 | 0.0 | 0.00 | 0.02 | 0.02 | 99 | 1014.5 |
| 20260507100658 | 48 | 346 | 0.0 | 0.0 | 0.00 | 0.02 | 0.02 | 99 | 1014.7 |
| 20260507100157 | 48 | 346 | 0.0 | 0.0 | 0.00 | 0.02 | 0.02 | 99 | 1014.4 |
| 20260507095654 | 48 | 346 | 0.0 | 0.0 | 0.00 | 0.02 | 0.02 | 99 | 1014.6 |
| 20260507095151 | 48 | 346 | 0.0 | 0.0 | 0.00 | 0.02 | 0.02 | 99 | 1014.5 |
| 20260507094647 | 48 | 346 | 0.0 | 0.0 | 0.00 | 0.02 | 0.02 | 99 | 1014.4 |
| 20260507094144 | 48 | 346 | 0.0 | 0.0 | 0.00 | 0.02 | 0.02 | 99 | 1014.4 |
| 20260507093641 | 48 | 346 | 0.0 | 0.0 | 0.00 | 0.02 | 0.02 | 99 | 1014.5 |
| 20260507093141 | 48 | 346 | 0.0 | 0.0 | 0.00 | 0.02 | 0.02 | 99 | 1014.2 |
| 20260507092636 | 48 | 346 | 0.0 | 0.0 | 0.00 | 0.02 | 0.02 | 99 | 1014.4 |
| 20260507092133 | 48 | 346 | 0.0 | 0.0 | 0.00 | 0.02 | 0.02 | 99 | 1014.2 |
| 20260507091629 | 48 | 346 | 0.0 | 0.0 | 0.00 | 0.02 | 0.02 | 99 | 1014.3 |
| 20260507091125 | 48 | 346 | 0.0 | 0.0 | 0.00 | 0.02 | 0.02 | 99 | 1014.3 |
| 20260507090621 | 48 | 346 | 0.0 | 0.0 | 0.00 | 0.02 | 0.02 | 99 | 1014.3 |
| 20260507090119 | 48 | 346 | 0.0 | 0.0 | 0.00 | 0.02 | 0.02 | 99 | 1014.3 |
| 20260507085616 | 48 | 346 | 0.0 | 0.0 | 0.00 | 0.02 | 0.02 | 99 | 1014.0 |
| 20260507085112 | 48 | 346 | 0.0 | 0.0 | 0.00 | 0.02 | 0.02 | 99 | 1014.3 |
| 20260507084609 | 48 | 346 | 0.0 | 0.0 | 0.00 | 0.02 | 0.02 | 99 | 1014.4 |
| 20260507084106 | 48 | 346 | 0.0 | 0.0 | 0.00 | 0.02 | 0.02 | 99 | 1014.5 |
| 20260507083602 | 48 | 346 | 0.0 | 0.0 | 0.00 | 0.02 | 0.02 | 99 | 1014.3 |
| 20260507083100 | 48 | 346 | 0.0 | 0.0 | 0.00 | 0.02 | 0.02 | 99 | 1014.5 |
| 20260507082555 | 48 | 346 | 0.0 | 0.0 | 0.00 | 0.02 | 0.02 | 99 | 1014.6 |
| 20260507082052 | 48 | 346 | 0.0 | 0.0 | 0.00 | 0.02 | 0.02 | 99 | 1014.5 |
| 20260507081548 | 48 | 346 | 0.0 | 0.0 | 0.00 | 0.02 | 0.02 | 99 | 1014.3 |
| 20260507081045 | 48 | 346 | 0.0 | 0.0 | 0.00 | 0.02 | 0.02 | 99 | 1014.4 |
| 20260507080541 | 48 | 346 | 0.0 | 0.0 | 0.00 | 0.02 | 0.02 | 99 | 1014.2 |
| 20260507080038 | 48 | 346 | 0.0 | 0.0 | 0.00 | 0.02 | 0.02 | 99 | 1014.2 |
| 20260507075533 | 48 | 346 | 0.0 | 0.0 | 0.00 | 0.02 | 0.02 | 99 | 1014.3 |
| 20260507075030 | 48 | 346 | 0.0 | 0.0 | 0.00 | 0.02 | 0.02 | 99 | 1014.4 |
| 20260507074526 | 48 | 346 | 0.0 | 0.0 | 0.00 | 0.02 | 0.02 | 99 | 1014.5 |
| 20260507074025 | 48 | 346 | 0.9 | 0.9 | 0.00 | 0.02 | 0.02 | 98 | 1014.5 |
| 20260507073521 | 48 | 346 | 0.9 | 0.9 | 0.00 | 0.02 | 0.02 | 98 | 1014.4 |